Regional Weather Roundup
Issued by NWS

Home | Current Version | Previous Version | Graphics & Text | Print | Product List | Glossary On
Versions: 1 2 3 4 5 6 7 8 9 10 11 12 13 14 15 16 17 18 19 20 21 22 23 24 25 26 27 28 29 30 31 32 33 34 35 36 37 38 39 40 41 42 43 44 45 46 47 48 49 50
000
ASUS43 KFSD 210002
RWRSD

WEATHER ROUNDUP FOR SOUTH DAKOTA
NATIONAL WEATHER SERVICE SIOUX FALLS SD
700 PM CDT SUN APR 20 2014

NOTE: "FAIR" INDICATES FEW OR NO CLOUDS BELOW 12,000 FEET WITH NO
SIGNIFICANT WEATHER AND/OR OBSTRUCTIONS TO VISIBILITY.


SDZ001>005-009-010-012>017-210100-
NORTHWEST AND NORTH CENTRAL SOUTH DAKOTA

CITY           SKY/WX    TMP DP  RH WIND       PRES   REMARKS
FAITH            N/A     69  29  22 N26G35    29.95R
MOBRIDGE       PTSUNNY   75  33  21 CALM      29.85S
$$

SDZ012>016-024>037-041>051-057-063-072>074-210100-
SOUTHWEST AND SOUTH CENTRAL SOUTH DAKOTA

CITY           SKY/WX    TMP DP  RH WIND       PRES   REMARKS
RAPID CTY ARPT MOSUNNY   66  29  24 N25G36    29.99R
PIERRE         PTSUNNY   76  46  34 E5        29.82S
CUSTER         PTSUNNY   63  34  33 NE8       30.05R
ELLSWORTH AFB  MOSUNNY   66  30  25 N28       29.99R
PHILIP         PTSUNNY   75  36  24 N18       29.89R
PINE RIDGE     PTSUNNY   69  37  30 N22G31    29.95R
WINNER         FAIR      78  42  27 S7        29.82F
$$

SDZ004>011-016>023-039-040-210100-
NORTHEAST SOUTH DAKOTA

CITY           SKY/WX    TMP DP  RH WIND       PRES   REMARKS
ABERDEEN       PTSUNNY   75  29  18 SW6       29.87S
WATERTOWN      MOSUNNY   71  34  25 E8        29.90F
SISSETON         N/A     71  34  25 S10       29.89F
$$

SDZ017-020-022-023-036>040-048>070-210100-
SOUTHEAST SOUTH DAKOTA

CITY           SKY/WX    TMP DP  RH WIND       PRES   REMARKS
SIOUX FALLS    MOSUNNY   77  48  35 S9        29.86S
HURON          SUNNY     80  39  23 SW6       29.84S
CHAMBERLAIN      N/A     80  42  25 S12       29.83F
MITCHELL       SUNNY     80  42  25 S9        29.84F
YANKTON        MOSUNNY   79  52  38 S10       29.85F
$$

ABBREVIATIONS USED IN REMARKS
   TC - TEMPERATURE IN CELSIUS
  WCI - WIND CHILL INDEX
   HX - HEAT INDEX
  VSB - VISIBILITY




USA.gov is the U.S. government's official web portal to all federal, state and local government web resources and services.